Regional Weather Roundup
Issued by NWS Northern Indiana

Home | Current Version | Previous Version | Text Only | Print | Product List | Glossary On
Versions: 1 2 3 4 5 6 7 8 9 10 11 12 13 14 15 16 17 18 19 20 21 22 23 24 25 26 27 28 29 30 31 32 33 34 35 36 37 38 39 40 41 42 43 44 45 46 47 48 49 50
000
ASUS43 KIWX 260010
RWRIWX

KIWX WEATHER ROUNDUP
NATIONAL WEATHER SERVICE NORTHERN INDIANA
800 PM EDT MON SEP 25 2017

NOTE: "FAIR" INDICATES FEW OR NO CLOUDS BELOW 12,000 FEET WITH NO
SIGNIFICANT WEATHER AND/OR OBSTRUCTIONS TO VISIBILITY.

* THESE STATIONS ARE NOT UNDER NWS QUALITY CONTROL. THEY ALSO MAY NOT
  REPORT WEATHER SUCH AS PRECIPITATION OR FOG.

INZ001>027-260100-
NORTHERN INDIANA

CITY           SKY/WX    TMP DP  RH WIND       PRES   REMARKS
GARY*          PTCLDY    75  61  60 SE3       29.94S
VALPARAISO     CLEAR     80  55  42 SE3       29.96R
6HR MIN TEMP:  80; 6HR MAX TEMP:  91;

MICHIGAN CITY* CLEAR     72  61  68 CALM      29.96S
LAPORTE*       PTCLDY    74  59  60 CALM      29.96S
6HR MIN TEMP:  74; 6HR MAX TEMP:  90;

KNOX*          CLOUDY    79  55  44 SE3       29.95S
SOUTH BEND     CLOUDY    81  55  40 SE5       29.96S
6HR MIN TEMP:  81; 6HR MAX TEMP:  89;

ELKHART*       CLEAR     77  55  47 CALM      29.97R
GOSHEN         CLEAR     75  58  55 CALM      29.96F
6HR MIN TEMP:  75; 6HR MAX TEMP:  89;

MONTICELLO*    CLEAR     75  59  58 CALM      29.94S
6HR MIN TEMP:  75; 6HR MAX TEMP:  89;

LOGANSPORT*    CLEAR     73  55  53 SE6       29.95F HAZE
WARSAW*        CLEAR     73  63  68 CALM      29.96S
AUBURN*        CLEAR     73  63  68 CALM      29.97F
FORT WAYNE     PTCLDY    76  64  66 CALM      29.97S
6HR MIN TEMP:  76; 6HR MAX TEMP:  89;

HUNTINGTON*    MOCLDY    76  61  60 CALM      29.96S
6HR MIN TEMP:  75; 6HR MAX TEMP:  89;

PERU/GRISSOM   CLEAR     80  59  48 SE3       29.95S
6HR MIN TEMP:  80; 6HR MAX TEMP:  90;


$$
INZ028>050-260100-
CENTRAL INDIANA

CITY           SKY/WX    TMP DP  RH WIND       PRES   REMARKS
LAFAYETTE      CLEAR     77  63  61 CALM      29.92F
6HR MIN TEMP:  77; 6HR MAX TEMP:  89;

KOKOMO*        CLEAR     76  61  59 SE5       29.97S
6HR MIN TEMP:  76; 6HR MAX TEMP:  89;

MUNCIE*        CLEAR     82  60  47 S5        29.97S
6HR MIN TEMP:  82; 6HR MAX TEMP:  91;

INDIANAPOLIS   PTCLDY    83  59  44 SE5       29.95F
6HR MIN TEMP:  83; 6HR MAX TEMP:  91;


$$
MIZ043>046-050>051-056>058-064>065-071>073-077>080-260100-
SOUTHWEST LOWER MICHIGAN

CITY           SKY/WX    TMP DP  RH WIND       PRES   REMARKS
BATTLE CREEK   CLEAR     79  58  48 S5        29.98S
6HR MIN TEMP:  79; 6HR MAX TEMP:  90;

BENTON HARBOR  PTCLDY    76  62  62 CALM      29.95S
6HR MIN TEMP:  76; 6HR MAX TEMP:  90;

COLDWATER*     CLEAR     76  58  53 CALM      29.98S
6HR MIN TEMP:  75; 6HR MAX TEMP:  89;

HILLSDALE*     CLEAR     72  61  68 CALM      29.98F
HOLLAND        PTCLDY    76  59  55 CALM      29.97R
6HR MIN TEMP:  76; 6HR MAX TEMP:  90;

GRAND RAPIDS   CLOUDY    81  55  40 CALM      29.97R
6HR MIN TEMP:  81; 6HR MAX TEMP:  91;

KALAMAZOO      PTCLDY    79  54  41 S5        29.97S
6HR MIN TEMP:  78; 6HR MAX TEMP:  90;

STURGIS*       CLEAR     74  58  56 CALM      29.97S
6HR MIN TEMP:  74; 6HR MAX TEMP:  89;

THREE RIVERS*  FAIR      79  56  46 CALM      29.97S
6HR MIN TEMP:  79; 6HR MAX TEMP:  91;


$$
OHZ001>008-015>018-024>025-260100-
NORTHWEST OHIO

CITY           SKY/WX    TMP DP  RH WIND       PRES   REMARKS
WAUSEON*         N/A     79  64  61 E5        29.97S
DEFIANCE       PTCLDY    77  63  61 CALM      29.96F
6HR MIN TEMP:  77; 6HR MAX TEMP:  90;

FINDLAY        CLOUDY    83  64  52 E5        29.96F
6HR MIN TEMP:  83; 6HR MAX TEMP:  91;

TOLEDO EXPRESS PTCLDY    79  66  64 CALM      29.97S
6HR MIN TEMP:  79; 6HR MAX TEMP:  92;

TOLEDO METCALF MOCLDY    78  65  63 E5        29.98F
6HR MIN TEMP:  77; 6HR MAX TEMP:  91;

LIMA           CLOUDY    81  62  52 SE3       29.98S
6HR MIN TEMP:  81; 6HR MAX TEMP:  90;


$$
AND FOR LAKE MICHIGAN COASTAL AND OPEN LAKE BUOY OBSERVATIONS

STATION/POSITION TEMP    WIND        PRES    VSBY  WAVE
                 AIR SEA DIR/SP/G                  HT/PER
                 (F)     (DEG/KT/KT) (MB)    (MI)  (FT/S)
CALUMET HARBOR           100/  5/  9   N/A
MICHIGAN CITY     84      90/  4/  5   N/A
BURNS HARBOR      82     120/  4/  6 1014.2
SAINT JOSEPH      79        CALM     1014.2
SOUTH LAKE BUOY   74 71  110/  6/  6 1013.8F         0
4 MI NW BRIDGMAN  76 74  110/  4/  4 1013.7          0
MICHIGAN CITY     76 74   90/  4/  6   N/A           0

$$
&&




USA.gov is the U.S. government's official web portal to all federal, state and local government web resources and services.